Frankfort, KY

3:32 AM EDT on April 26, 2017 (GMT -0400)
Capital City

Weather History for KFFT - March, 2014

Change the Weather History Date:

Thursday, March 6, 2014

  Actual Average Record
Temperature  
Mean Temperature 35 °F 42 °F  
Max Temperature 46 °F 52 °F 80 °F (1983)
Min Temperature 24 °F 31 °F -10 °F (2015)
Degree Days  
Heating Degree Days 30 23  
Month to date heating degree days 212 145  
Since 1 July heating degree days 4324 3784  
Cooling Degree Days 0 0  
Month to date cooling degree days 0 0  
Year to date cooling degree days 0 0  
Moisture  
Dew Point 23 °F    
Average Humidity 64    
Maximum Humidity 78    
Minimum Humidity 49    
Precipitation  
Precipitation 0.00 in 0.13 in 2.42 in (1961)
Month to date precipitation 0.90 0.72  
Year to date precipitation 7.10 7.27  
Sea Level Pressure  
Sea Level Pressure 30.19 in    
Wind  
Wind Speed 6 mph (ENE)    
Max Wind Speed 15 mph    
Max Gust Speed 19 mph    
Visibility 10 miles    
Events      
T = Trace of Precipitation, MM = Missing Value Source: NWS Daily Summary

Daily Weather History Graph

Daily Weather History Graph

Search for Another Location

Airport or City:

Trip Planner

Search our weather history database for the weather conditions in past years. The results will help you decide how hot, cold, wet, or windy it might be!

Date:

Astronomy

Mar. 06, 2014 Rise Set
Actual Time 7:04 AM EST 6:37 PM EST
Civil Twilight 6:37 AM EST 7:04 PM EST
Nautical Twilight 6:07 AM EST 7:34 PM EST
Astronomical Twilight 5:36 AM EST 8:05 PM EST
Moon 10:16 AM EST (3/6) No Moon Set
Length of Visible Light 12h 26m
Length of Day
11h 33m
Waxing Crescent, 32% of the Moon is Illuminated
Mar 6
Waxing Crescent
Mar 8
First Quarter
Mar 16
Full
Mar 23
Last Quarter
Mar 30
New

Hourly Weather History & Observations

Time (EST) Temp. Windchill Dew Point Humidity Pressure Visibility Wind Dir Wind Speed Gust Speed Precip Events Conditions
12:53 AM 28.0 °F 20.0 °F 19.0 °F 69% 30.27 in 10.0 mi NNE 8.1 mph - N/A   Clear
1:53 AM 27.0 °F 20.5 °F 19.9 °F 75% 30.26 in 10.0 mi NNE 5.8 mph - N/A   Clear
2:53 AM 26.1 °F 18.4 °F 19.0 °F 75% 30.25 in 10.0 mi NE 6.9 mph - N/A   Clear
3:53 AM 26.1 °F 19.4 °F 19.0 °F 75% 30.25 in 10.0 mi NE 5.8 mph - N/A   Clear
4:53 AM 25.0 °F 15.5 °F 18.0 °F 75% 30.23 in 10.0 mi NNE 9.2 mph - N/A   Clear
5:53 AM 25.0 °F 17.1 °F 18.0 °F 75% 30.24 in 10.0 mi NE 6.9 mph - N/A   Clear
6:53 AM 24.1 °F 16.0 °F 17.1 °F 75% 30.26 in 10.0 mi NE 6.9 mph - N/A   Clear
7:53 AM 25.0 °F 18.1 °F 17.1 °F 72% 30.27 in 10.0 mi Variable 5.8 mph - N/A   Clear
8:53 AM 26.1 °F 16.2 °F 18.0 °F 71% 30.27 in 10.0 mi NE 10.4 mph - N/A   Clear
9:53 AM 30.0 °F 20.5 °F 19.0 °F 64% 30.26 in 10.0 mi East 11.5 mph 19.6 mph N/A   Clear
10:53 AM 34.0 °F 27.2 °F 21.0 °F 59% 30.25 in 10.0 mi ENE 8.1 mph - N/A   Clear
11:53 AM 36.0 °F 29.0 °F 23.0 °F 59% 30.24 in 10.0 mi East 9.2 mph - N/A   Clear
12:53 PM 37.9 °F 31.5 °F 24.1 °F 57% 30.20 in 10.0 mi East 9.2 mph - N/A   Clear
1:53 PM 41.0 °F 35.8 °F 25.0 °F 53% 30.17 in 10.0 mi East 8.1 mph - N/A   Clear
2:53 PM 44.1 °F 41.5 °F 26.1 °F 49% 30.14 in 10.0 mi ENE 4.6 mph - N/A   Clear
3:53 PM 44.1 °F 40.1 °F 28.0 °F 53% 30.12 in 10.0 mi ESE 6.9 mph - N/A   Clear
4:53 PM 44.1 °F 41.5 °F 28.9 °F 55% 30.11 in 10.0 mi East 4.6 mph - N/A   Clear
5:53 PM 42.1 °F 39.2 °F 30.0 °F 62% 30.11 in 10.0 mi ESE 4.6 mph - N/A   Clear
6:53 PM 39.9 °F 36.7 °F 28.9 °F 65% 30.11 in 10.0 mi East 4.6 mph - N/A   Clear
7:53 PM 36.0 °F - 28.9 °F 76% 30.12 in 10.0 mi Calm Calm - N/A   Clear
8:53 PM 32.0 °F - 27.0 °F 82% 30.12 in 10.0 mi Calm Calm - N/A   Clear
9:53 PM 35.1 °F 31.0 °F 27.0 °F 72% 30.11 in 10.0 mi NNE 4.6 mph - N/A   Clear
10:53 PM 33.1 °F - 26.1 °F 75% 30.09 in 10.0 mi Calm Calm - N/A   Clear
11:53 PM 30.0 °F 25.2 °F 25.0 °F 82% 30.08 in 10.0 mi North 4.6 mph - N/A   Clear